[[{"header":{"parameterUnit":"m.s-1","parameterCategory":1,"la1":30.2991,"la2":30.254,"lo1":-89.0895,"lo2":-89.0444,"dy":0.0017,"dx":0.0017,"nx":28,"ny":28,"refTime":"2025-08-28T03:00:00:Z","depth":0,"parameterNumber":2,"parameterNumberName":"U-component_of_WINDS"},"data":[0,0,0,0,0,0,0,0,0,0,0,0,0,0,0,0,0,0,0,0,0,0,0,0,0,0,0,0,0,0,0,0,0,0,0,0,0,0,0,0,0,0,0,0,0,0,0,0,0,0,0,0,0,0,0,0,0,0,-1.6242,-1.6242,0,-1.6191,-1.619,-1.619,-1.6088,-1.6086,-1.6084,-1.6082,-1.6031,-1.6031,-1.6032,0,0,0,0,0,0,0,0,0,0,0,0,0,-1.6255,-1.6255,-1.6242,-1.6242,-1.6241,-1.6191,-1.619,-1.619,-1.6089,-1.6086,-1.6084,-1.6081,-1.6031,-1.6031,-1.6032,0,0,0,0,0,0,0,0,0,0,0,0,0,-1.6231,-1.6255,-1.6242,-1.6184,-1.6179,-1.6191,-1.619,-1.6189,-1.6089,-1.6086,-1.6083,-1.608,-1.6031,-1.6031,-1.6032,-1.6097,0,0,-1.6034,-1.6035,0,0,0,0,0,0,0,0,-1.6233,-1.6231,-1.6194,-1.6188,-1.6182,-1.6143,-1.6176,-1.6159,-1.609,-1.6123,-1.6082,-1.6079,-1.6071,-1.6068,-1.6065,-1.6095,-1.6092,-1.6034,-1.6035,-1.6035,-1.6035,0,0,0,0,0,0,0,-1.6234,-1.6232,-1.6222,-1.6193,-1.6186,-1.6162,-1.6155,-1.6172,-1.6115,-1.612,-1.6113,-1.6108,-1.6067,-1.6065,-1.6063,-1.6092,-1.6034,-1.6035,-1.6036,-1.6036,-1.6174,-1.6177,0,0,0,0,0,0,-1.6244,-1.6235,-1.6224,-1.622,-1.62,-1.6164,-1.6157,-1.6159,-1.6114,-1.6104,-1.611,-1.6103,-1.6065,-1.6062,-1.6061,-1.6134,-1.6035,-1.6036,-1.6036,-1.617,-1.6174,-1.6178,0,0,0,0,0,0,-1.6245,-1.6244,-1.6226,-1.6225,-1.6221,-1.6167,-1.617,-1.6159,-1.6156,-1.6107,-1.6096,-1.6118,-1.6062,-1.606,-1.6089,-1.6131,-1.6036,-1.6037,-1.6167,-1.6172,-1.6176,-1.6282,0,0,0,0,0,0,-1.6246,-1.6245,-1.6268,-1.6227,-1.6222,-1.6254,-1.6173,-1.616,-1.6158,-1.6148,-1.6111,-1.6102,-1.606,-1.6089,-1.609,-1.613,-1.6038,-1.6163,-1.6169,-1.6174,-1.6274,-1.629,-1.6303,0,0,0,0,0,-1.6247,-1.63,-1.627,-1.6269,-1.625,-1.6257,-1.6254,-1.6203,-1.6162,-1.6185,-1.6154,-1.6104,-1.6127,-1.6092,-1.6093,-1.6135,-1.616,-1.6167,-1.6174,-1.6268,-1.6287,-1.6303,0,0,0,0,0,0,-1.6348,-1.6294,-1.626,-1.6301,-1.6285,-1.624,-1.6267,-1.6225,-1.6219,-1.621,-1.6148,-1.6141,-1.6179,-1.616,-1.6122,-1.6196,-1.6135,-1.6143,-1.6207,-1.6224,-1.6238,-1.6241,-1.6038,0,0,0,0,0,-1.6376,-1.6386,-1.6337,-1.6379,-1.6372,-1.6322,-1.6323,-1.6286,-1.6266,-1.6258,-1.6229,-1.6212,-1.6215,-1.6219,-1.6219,-1.6272,-1.6263,-1.6301,-1.6315,-1.6327,-1.6334,-1.6362,-1.6378,-1.6201,-1.6201,-1.6201,0,0,-1.6432,-1.6404,-1.6413,-1.6399,-1.6381,-1.6394,-1.6316,-1.6332,-1.6341,-1.6261,-1.6286,-1.6265,-1.6242,-1.6284,-1.63,-1.6269,-1.6382,-1.6336,-1.6346,-1.6347,-1.6371,-1.6388,-1.6403,-1.6206,-1.6205,-1.6205,0,0,-1.6541,-1.652,-1.6553,-1.6537,-1.6512,-1.6478,-1.6487,-1.6449,-1.6431,-1.6456,-1.6396,-1.6407,-1.6414,-1.64,-1.6394,-1.6501,-1.6455,-1.6503,-1.6577,-1.6605,-1.6618,-1.6631,-1.6669,-1.6683,-1.6511,-1.6511,-1.6511,0,-1.6614,-1.6629,-1.6575,-1.6595,-1.6591,-1.652,-1.6553,-1.6541,-1.6517,-1.6516,-1.6481,-1.649,-1.6469,-1.6507,-1.6534,-1.6531,-1.6539,-1.6506,-1.6621,-1.6632,-1.6643,-1.6679,-1.6693,-1.6517,-1.6516,-1.6515,-1.6515,0,-1.6721,-1.6733,-1.6763,-1.6742,-1.6741,-1.6768,-1.6719,-1.6725,-1.6689,-1.6659,-1.6686,-1.666,-1.6654,-1.6661,-1.6625,-1.6694,-1.6675,-1.6632,-1.6569,-1.6667,-1.6699,-1.6712,-1.6525,-1.6523,-1.6521,-1.652,0,0,-1.689,-1.6841,-1.6852,-1.6842,-1.6811,-1.6819,-1.6844,-1.6838,-1.6845,-1.6832,-1.6851,-1.686,-1.682,-1.6813,-1.6776,-1.6801,-1.6888,-1.6754,-1.6752,-1.678,-1.6963,-1.6995,-1.7012,-1.6858,-1.686,-1.6862,-1.6965,0,-1.6991,-1.7029,-1.6982,-1.703,-1.7041,-1.6975,-1.6996,-1.698,-1.6954,-1.696,-1.6931,-1.6939,-1.6885,-1.6881,-1.6902,-1.6873,-1.6923,-1.6865,-1.6875,-1.6876,-1.6882,-1.7029,-1.7063,-1.7161,-1.6977,-1.6979,-1.6981,0,-1.7113,-1.7107,-1.7156,-1.7123,-1.7125,-1.7145,-1.7137,-1.7144,-1.7125,-1.7104,-1.7098,-1.7054,-1.7077,-1.7018,-1.7049,-1.701,-1.7012,-1.6998,-1.7001,-1.6999,-1.6934,-1.7031,-1.7191,-1.7205,-1.7,-1.6999,-1.6997,0,-1.7232,-1.7235,-1.7265,-1.7259,-1.7221,-1.7236,-1.7221,-1.7199,-1.7199,-1.7193,-1.7193,-1.7189,-1.7187,-1.7186,-1.7143,-1.7104,-1.718,-1.7117,-1.7164,-1.7165,-1.7181,-1.7181,-1.7344,-1.7185,-1.7184,-1.7184,-1.7184,0,-1.7349,-1.7381,-1.7318,-1.7336,-1.7372,-1.7319,-1.7356,-1.7334,-1.7315,-1.7329,-1.7272,-1.7287,-1.7229,-1.7238,-1.7205,-1.7236,-1.7235,-1.722,-1.721,-1.7224,-1.7226,-1.7224,-1.7216,-1.7188,-1.7187,-1.7186,-1.7186,0,-1.7485,-1.7444,-1.7473,-1.7435,-1.7426,-1.7454,-1.7422,-1.7438,-1.741,-1.7428,-1.743,-1.7385,-1.7392,-1.735,-1.7349,-1.7327,-1.7374,-1.7354,-1.7381,-1.7374,-1.7423,-1.7419,-1.759,-1.7609,-1.7439,-1.7441,-1.7442,0,-1.7562,-1.7586,-1.7551,-1.7556,-1.7544,-1.7553,-1.7554,-1.7503,-1.7506,-1.7487,-1.7506,-1.7509,-1.7509,-1.7524,-1.7492,-1.7492,-1.7471,-1.7531,-1.747,-1.7484,-1.7471,-1.747,-1.7473,-1.7543,-1.7545,-1.7547,-1.7548,0,-1.7703,-1.7682,-1.7684,-1.768,-1.7682,-1.7677,-1.7667,-1.7675,-1.7621,-1.7627,-1.7634,-1.7634,-1.7635,-1.7639,-1.7633,-1.7618,-1.7575,-1.7568,-1.7579,-1.7592,-1.7607,-1.76,-1.7414,-1.7564,-1.7562,-1.7561,-1.756,-1.7559,-1.7811,-1.783,-1.7809,-1.7814,-1.7802,-1.7795,-1.7809,-1.7782,-1.7787,-1.7783,-1.7754,-1.7767,-1.7749,-1.7737,-1.7727,-1.7737,-1.7709,-1.7724,-1.7728,-1.7733,-1.7741,-1.7607,-1.7736,-1.7735,-1.7735,-1.7735,-1.7734,0,-1.7948,-1.7932,-1.7937,-1.7927,-1.7931,-1.7891,-1.7879,-1.7886,-1.7898,-1.7885,-1.7886,-1.7895,-1.79,-1.7869,-1.7869,-1.7884,-1.7864,-1.7885,-1.7883,-1.7881,-1.7767,-1.7757,-1.7902,-1.7902,-1.7902,-1.7901,-1.7901,-1.7901,-1.802,-1.8049,-1.8027,-1.805,-1.8034,-1.8046,-1.8043,-1.8037,-1.8027,-1.8039,-1.8043,-1.8023,-1.8003,-1.8002,-1.8005,-1.7996,-1.7999,-1.8027,-1.8012,-1.7905,-1.7889,-1.7873,-1.7864,-1.8028,-1.8029,-1.8125,-1.8126,-1.8126]},{"header":{"parameterUnit":"m.s-1","parameterCategory":1,"la1":30.2991,"la2":30.254,"lo1":-89.0895,"lo2":-89.0444,"dy":0.0017,"dx":0.0017,"nx":28,"ny":28,"refTime":"2025-08-28T03:00:00:Z","depth":0,"parameterNumber":3,"parameterNumberName":"V-component_of_WINDS"},"data":[0,0,0,0,0,0,0,0,0,0,0,0,0,0,0,0,0,0,0,0,0,0,0,0,0,0,0,0,0,0,0,0,0,0,0,0,0,0,0,0,0,0,0,0,0,0,0,0,0,0,0,0,0,0,0,0,0,0,1.0529,1.0528,0,1.0474,1.0473,1.0472,1.0474,1.0474,1.0475,1.0476,1.0412,1.0409,1.0407,0,0,0,0,0,0,0,0,0,0,0,0,0,1.063,1.0628,1.0529,1.0528,1.0528,1.0474,1.0473,1.0472,1.0473,1.0474,1.0475,1.0476,1.0413,1.041,1.0407,0,0,0,0,0,0,0,0,0,0,0,0,0,1.0581,1.0627,1.0529,1.0522,1.0521,1.0474,1.0473,1.0472,1.0473,1.0474,1.0476,1.0477,1.0414,1.041,1.0406,1.0361,0,0,1.0395,1.0394,0,0,0,0,0,0,0,0,1.0584,1.0578,1.0524,1.0522,1.0521,1.0482,1.0485,1.0435,1.0473,1.0491,1.0476,1.0477,1.0434,1.0428,1.0415,1.0358,1.0355,1.0395,1.0393,1.0391,1.039,0,0,0,0,0,0,0,1.0587,1.058,1.0507,1.0523,1.0521,1.052,1.0514,1.0476,1.0456,1.049,1.049,1.0483,1.0433,1.0419,1.0414,1.0354,1.0395,1.0392,1.039,1.0388,1.0257,1.0255,0,0,0,0,0,0,1.0593,1.0583,1.0509,1.0505,1.0556,1.0517,1.0511,1.0493,1.0457,1.0453,1.0482,1.0484,1.0424,1.0418,1.0412,1.0355,1.0391,1.0388,1.0386,1.0258,1.0256,1.0255,0,0,0,0,0,0,1.0595,1.0587,1.0511,1.0544,1.0534,1.0514,1.0494,1.0491,1.0477,1.0452,1.0447,1.0472,1.0425,1.0417,1.0374,1.0353,1.0386,1.0383,1.0259,1.0257,1.0255,1.0243,0,0,0,0,0,0,1.0598,1.0587,1.0571,1.0544,1.0533,1.0476,1.0493,1.049,1.0472,1.0473,1.044,1.0436,1.0425,1.0379,1.037,1.0349,1.038,1.0261,1.0258,1.0256,1.0245,1.0241,1.0237,0,0,0,0,0,1.0602,1.0568,1.057,1.0561,1.0512,1.0475,1.0468,1.0459,1.047,1.0453,1.0436,1.0437,1.0358,1.0375,1.0365,1.0342,1.0262,1.0259,1.0256,1.0247,1.0242,1.0237,0,0,0,0,0,0,1.0591,1.0564,1.0566,1.0523,1.0502,1.0475,1.0453,1.0453,1.0426,1.0428,1.0415,1.0408,1.0365,1.0349,1.0369,1.0296,1.0311,1.0306,1.0307,1.0302,1.0298,1.0302,1.0377,0,0,0,0,0,1.0584,1.0558,1.0535,1.0499,1.0489,1.0473,1.0456,1.0451,1.0427,1.0417,1.0398,1.0372,1.0342,1.0321,1.0292,1.0244,1.0236,1.0223,1.0219,1.0216,1.0211,1.0184,1.0177,1.0245,1.0245,1.0245,0,0,1.0568,1.055,1.0534,1.0497,1.0479,1.0451,1.0465,1.0434,1.0412,1.0411,1.037,1.0356,1.0326,1.0281,1.026,1.0266,1.0191,1.0212,1.021,1.0206,1.018,1.0174,1.0168,1.0243,1.0243,1.0244,0,0,1.0524,1.0509,1.0478,1.0461,1.0436,1.0425,1.0418,1.0392,1.0383,1.0342,1.0341,1.0314,1.0262,1.0241,1.0224,1.0175,1.0174,1.0166,1.0144,1.0117,1.0112,1.0107,1.0088,1.0082,1.0161,1.0161,1.0161,0,1.0507,1.0466,1.0461,1.043,1.0413,1.0415,1.0382,1.0365,1.033,1.0317,1.0326,1.0262,1.0242,1.0192,1.018,1.0166,1.0156,1.0168,1.0114,1.0109,1.0104,1.0086,1.0079,1.016,1.016,1.016,1.016,0,1.0446,1.0417,1.0394,1.0364,1.0344,1.0313,1.0301,1.0282,1.0279,1.0267,1.0226,1.0203,1.0169,1.0157,1.0153,1.0106,1.0111,1.0117,1.0131,1.0097,1.008,1.0073,1.0159,1.0159,1.0159,1.016,0,0,1.039,1.036,1.0351,1.0337,1.031,1.0287,1.0255,1.0225,1.0208,1.0184,1.0156,1.0113,1.0119,1.0099,1.0093,1.0071,1.0032,1.0079,1.0079,1.007,0.9977,0.9972,0.9964,1.0033,1.0031,1.003,0.9979,0,1.0343,1.0289,1.0284,1.0234,1.0207,1.021,1.0182,1.0161,1.015,1.0124,1.0111,1.008,1.0092,1.008,1.0058,1.0041,1.0013,1.0045,1.0003,1.0002,1.0009,0.9955,0.9948,0.9901,0.9973,0.9972,0.9971,0,1.0279,1.0257,1.0205,1.0183,1.0172,1.0147,1.0119,1.0095,1.0071,1.0065,1.0044,1.0042,1.0007,1.0025,0.9976,0.9998,0.9981,0.9971,0.9969,0.9963,0.9983,0.9945,0.9886,0.9878,0.996,0.9961,0.9962,0,1.0243,1.02,1.0163,1.0151,1.0125,1.0107,1.0095,1.0073,1.0055,1.003,1.0018,0.9989,0.9972,0.9948,0.9937,0.9952,0.9888,0.9906,0.988,0.988,0.9864,0.9865,0.98,0.9857,0.9857,0.9857,0.9857,0,1.0189,1.0157,1.0147,1.0124,1.0088,1.0082,1.0046,1.0034,1.0015,0.9989,0.9989,0.9964,0.9952,0.9924,0.9915,0.9875,0.9868,0.986,0.9858,0.9859,0.986,0.9846,0.9848,0.9855,0.9856,0.9856,0.9856,0,1.014,1.0133,1.0093,1.0072,1.0067,1.0041,1.0022,0.9999,0.999,0.9956,0.9948,0.9932,0.99,0.9888,0.9848,0.9842,0.9795,0.9796,0.9804,0.9802,0.9777,0.9779,0.9698,0.9687,0.9754,0.9753,0.9753,0,1.0105,1.0081,1.0059,1.0043,1.0031,1.0004,0.9987,0.9981,0.9962,0.9935,0.9915,0.9884,0.9858,0.9807,0.979,0.976,0.9758,0.9733,0.9753,0.9756,0.9756,0.9757,0.9754,0.9728,0.9727,0.9727,0.9726,0,1.0043,1.0042,1.0018,0.9993,0.9973,0.9952,0.9932,0.9918,0.9909,0.9888,0.9857,0.9837,0.9798,0.9766,0.9736,0.9721,0.9721,0.972,0.9712,0.9712,0.9717,0.9712,0.9791,0.9721,0.9722,0.9722,0.9722,0.9723,0.9999,0.9978,0.996,0.9933,0.9918,0.99,0.9878,0.9867,0.9842,0.9811,0.9809,0.9774,0.9752,0.9711,0.9695,0.9667,0.9674,0.9662,0.9659,0.9656,0.9654,0.9724,0.9662,0.9662,0.9662,0.9662,0.9662,0,0.9936,0.9925,0.9901,0.9875,0.9854,0.986,0.9838,0.9819,0.979,0.9771,0.9747,0.9711,0.968,0.9663,0.9632,0.9613,0.9612,0.9605,0.9605,0.9601,0.965,0.9659,0.9606,0.9606,0.9606,0.9606,0.9606,0.9606,0.9901,0.9865,0.9861,0.9817,0.9806,0.9775,0.9762,0.9744,0.9729,0.9689,0.9665,0.9655,0.9636,0.9604,0.9577,0.9572,0.956,0.9551,0.9547,0.9592,0.9598,0.9603,0.9612,0.9549,0.9549,0.95,0.95,0.9499]}]]